Location: ????????
(55.0559°N, 39.1270°E)
Time: 17:48:36
(UTC+00:00)

Cosmos 2123 Rocket - Pass Details

Date: 15 November 2025
Orbit: 961 x 991 km, 82.9° (Epoch: 14 December)

Event Time Altitude Azimuth Distance (km) Brightness Sun altitude
Exits shadow 01:39:50 32° 187° (S) 1,587 4.9 -27.7°
Maximum altitude 01:42:54 87° 99° (E) 974 3.9 -27.2°
Drops below altitude 10° 01:49:07 10° 12° (NNE) 2,710 6.5 -26.3°
Sets 01:51:37 0° 12° (NNE) 3,660 7.2 -26.0°
